Weather History for Slidell, LA

Change the Weather History Date:

Tuesday, November 19, 2013

  Actual Average (KNEW) Record (KNEW)
Temperature  
Mean Temperature 54 °F 62 °F  
Max Temperature 64 °F 71 °F 85 °F (1981)
Min Temperature 41 °F 53 °F 31 °F (1951)
Degree Days  
Heating Degree Days 12 5  
Month to date heating degree days 68  
Since 1 July heating degree days 93  
Cooling Degree Days 0 2  
Month to date cooling degree days 52  
Year to date cooling degree days 2961  
Growing Degree Days 4 (Base 50)    
Moisture  
Dew Point 37 °F    
Average Humidity 58    
Maximum Humidity 86    
Minimum Humidity 27    
Precipitation  
Precipitation 0.00 in 0.16 in 6.18 in (1953)
Month to date precipitation 2.75  
Year to date precipitation 55.47  
Snow  
Snow 0.00 in - - ()
Month to date snowfall  
Since 1 July snowfall  
Since 1 September snowfall  
Snow Depth -    
Sea Level Pressure  
Sea Level Pressure 30.11 in    
Wind  
Wind Speed 5 mph (NNE)    
Max Wind Speed 10 mph    
Max Gust Speed 16 mph    
Visibility 10 miles    
Events      
T = Trace of Precipitation, MM = Missing Value Source: NWS Daily Summary

Daily Weather History Graph

Daily Weather History Graph

Search for Another Location

Airport:

Trip Planner

Search our weather history database for the weather conditions in past years. The results will help you decide how hot, cold, wet, or windy it might be!

Date:

Astronomy

Nov. 19, 2013 Rise Set
Actual Time 6:28 AM CST 5:00 PM CST
Civil Twilight 6:02 AM CST 5:26 PM CST
Nautical Twilight 5:33 AM CST 5:55 PM CST
Astronomical Twilight 5:05 AM CST 6:24 PM CST
Moon 6:53 PM CST (11/19) 8:06 AM CST (11/19)
Length of Visible Light 11h 23m
Length of Day
10h 32m
Waning Gibbous, 96% of the Moon is Illuminated
Nov 19
Waning Gibbous
Nov 25
Last Quarter
Dec 2
New
Dec 9
First Quarter
Dec 17
Full

Hourly Weather History & Observations

Time (CST) Temp. Windchill Dew Point Humidity Pressure Visibility Wind Dir Wind Speed Gust Speed Precip Events Conditions
12:53 AM 51.1 °F - 42.1 °F 71% 30.09 in 10.0 mi North 5.8 mph - N/A   Clear
1:53 AM 50.0 °F - 43.0 °F 77% 30.09 in 10.0 mi North 3.5 mph - N/A   Clear
2:53 AM 48.9 °F - 43.0 °F 80% 30.10 in 10.0 mi North 3.5 mph - N/A   Clear
3:53 AM 50.0 °F - 41.0 °F 71% 30.10 in 10.0 mi NNE 6.9 mph - N/A   Clear
4:53 AM 50.0 °F - 39.9 °F 68% 30.13 in 10.0 mi NNE 4.6 mph - N/A   Clear
5:53 AM 50.0 °F - 39.0 °F 66% 30.13 in 10.0 mi NNE 5.8 mph - N/A   Scattered Clouds
6:53 AM 50.0 °F - 39.0 °F 66% 30.15 in 10.0 mi Calm Calm - N/A   Mostly Cloudy
7:53 AM 52.0 °F - 39.0 °F 61% 30.16 in 10.0 mi NNE 8.1 mph - N/A   Overcast
8:53 AM 55.0 °F - 37.0 °F 51% 30.17 in 10.0 mi NE 9.2 mph - N/A   Mostly Cloudy
9:53 AM 59.0 °F - 34.0 °F 39% 30.16 in - ENE 9.2 mph - N/A   Clear
10:53 AM 60.1 °F - 33.1 °F 36% 30.13 in - NE 10.4 mph - N/A   Mostly Cloudy
11:53 AM 61.0 °F - 32.0 °F 34% 30.12 in - NE 5.8 mph 16.1 mph N/A   Scattered Clouds
12:53 PM 64.0 °F - 30.9 °F 29% 30.09 in 10.0 mi NNE 9.2 mph - N/A   Partly Cloudy
1:53 PM 64.0 °F - 30.0 °F 28% 30.06 in 10.0 mi North 9.2 mph - N/A   Clear
2:53 PM 64.9 °F - 30.0 °F 27% 30.05 in 10.0 mi NNW 10.4 mph - N/A   Clear
3:53 PM 63.0 °F - 33.1 °F 33% 30.06 in 10.0 mi North 9.2 mph - N/A   Clear
4:53 PM 59.0 °F - 36.0 °F 42% 30.06 in 10.0 mi North 4.6 mph - N/A   Clear
5:53 PM 55.0 °F - 41.0 °F 59% 30.08 in 10.0 mi Calm Calm - N/A   Clear
6:53 PM 51.1 °F - 41.0 °F 68% 30.09 in 10.0 mi Calm Calm - N/A   Clear
7:53 PM 48.9 °F - 39.0 °F 69% 30.11 in 10.0 mi Calm Calm - N/A   Clear
8:53 PM 45.0 °F 42.6 °F 39.0 °F 80% 30.11 in 10.0 mi NNE 4.6 mph - N/A   Clear
9:53 PM 45.0 °F - 37.0 °F 74% 30.11 in 10.0 mi Calm Calm - N/A   Clear
10:53 PM 43.0 °F - 37.9 °F 82% 30.10 in 10.0 mi Calm Calm - N/A   Clear
11:53 PM 41.0 °F - 37.0 °F 86% 30.08 in 10.0 mi Calm Calm - N/A   Clear